STARLINK-2417, 48096

Orbit data source: Space-Track

STARLINK-2417, 48096 is a payload satellite owned by SpaceX/Seattle (US) in LEO that was launched on Wed, 07 Apr 2021 UTC via an FALCON 9 launch vehicle from the Air Force Eastern Test Range (AFETR). Payload-class satellites include a variety of spacecraft equipped with specific instruments for various scientific and technological missions. These include communications satellites like Starlink; space stations such as the ISS; scientific satellites like the Hubble; Earth observation satellites from companies like Planet Labs, Umbra, and HawkEye 360; GPS; miniature CubeSats for education and research; and military/defense satellites.

Loading next visibility...
Identifier
48096, 2021-027E
Orbit
LEO
Country
Flag of USUS
Related business
Manufacturer
SpaceX/Seattle
Mission
Operational Commercial Communications
Bus & Motor
STARLINK, Unknown motor
Mass
260 kg wet, ~248 kg dry
Launch date (UTC)
2021-04-07 (5 years ago)
Launch vehicle
FALCON 9
Launch site
Air Force Eastern Test Range (AFETR)
Object type
Payload
Rocket body
Debris
Shape & HBR
Box + 1 Pan, 10.1 m
Radar Cross Section
13.562 m², Large (>1 m²)

Expand to show TLE details & history
Last TLE update: 3 days ago

TLE from 3 days ago
0 STARLINK-2417
1 48096U 21027E   26170.94910743  .00001424  00000-0  57662-4 0  9993
2 48096  53.1618  49.8783 0001336  89.7148 270.4007 15.31697697288172
Epoch: 2026-06-19T22:46Z
TLE epoch observation values (Epoch: 2026-06-19T22:46:42.881Z)
Latitude
-0.00001°
Longitude
160.02887°
Altitude
471.641 km
Speed
7.631 km/s
True Right ascension
03h 19m 30s
True Declination
0° 00' 00"
Sunlit
Object was in daylight at epoch
Visualization orbit readout
Latitude
Unknown
Longitude
Unknown
Altitude
Unknown
Speed
Unknown
Apparent Right ascension
Unknown
Apparent Declination
Unknown
Sunlit
N/A
Visualization observer readout
Local Sidereal Time
00:38:49
Azimuth
Unknown
Elevation
Unknown
Doppler factor
Unknown
Orbital elements
Apogee altitude
471.918 km
Perigee altitude
470.088 km
Semi-major axis
6,849.14 km
Eccentricity
0.00013
Inclination
53.1618°
RAAN
49.8783°
Arg. of periapsis
89.7148°
True anomaly
270.38539°
Mean anomaly
270.4007°
Eccentric anomaly
270.39305°
Mean motion
3.82903 °/min
Orbital period
94.02 mins
BSTAR
0.000057662
Loading maneuver chart data...
Computing Atmospheric mass density...

Documentation

Showing up to 5 results
|